| time (UTC) | temp F | wind direction | speed MPH | gust MPH | rain 1hr in | rain 24hr in | rain mn in | humidity % | barometer mb |
| 20260506230347 | 52 | 23 | 0.0 | 1.0 | 0.00 | 0.00 | 0.00 | 82 | 1012.2 |
| 20260506225206 | 52 | 7 | 1.0 | 1.0 | 0.00 | 0.00 | 0.00 | 81 | 1012.2 |
| 20260506223945 | 52 | 41 | 1.0 | 1.0 | 0.00 | 0.00 | 0.00 | 81 | 1012.2 |
| 20260506222744 | 52 | 45 | 1.0 | 2.0 | 0.00 | 0.00 | 0.00 | 80 | 1012.2 |
| 20260506221543 | 52 | 11 | 0.0 | 2.0 | 0.00 | 0.00 | 0.00 | 80 | 1012.2 |
| 20260506220342 | 52 | 23 | 1.0 | 2.0 | 0.00 | 0.00 | 0.00 | 80 | 1012.2 |
| 20260506215150 | 53 | 23 | 1.0 | 1.0 | 0.00 | 0.00 | 0.00 | 79 | 1012.2 |
| 20260506213949 | 53 | 45 | 0.0 | 1.0 | 0.00 | 0.00 | 0.00 | 79 | 1012.2 |
| 20260506212748 | 53 | 45 | 1.0 | 2.0 | 0.00 | 0.00 | 0.00 | 79 | 1012.2 |
| 20260506211548 | 53 | 34 | 1.0 | 2.0 | 0.00 | 0.00 | 0.00 | 79 | 1012.2 |
| 20260506210346 | 53 | 45 | 2.0 | 3.0 | 0.00 | 0.00 | 0.00 | 78 | 1012.2 |
| 20260506205146 | 53 | 45 | 2.0 | 3.0 | 0.00 | 0.00 | 0.00 | 78 | 1012.2 |
| 20260506203944 | 53 | 39 | 3.0 | 5.0 | 0.00 | 0.00 | 0.00 | 78 | 1012.2 |
| 20260506202743 | 53 | 25 | 1.0 | 3.0 | 0.00 | 0.00 | 0.00 | 78 | 1012.2 |
| 20260506201602 | 54 | 63 | 4.0 | 5.0 | 0.00 | 0.00 | 0.00 | 77 | 1012.2 |
| 20260506200401 | 54 | 33 | 5.0 | 6.0 | 0.00 | 0.00 | 0.00 | 77 | 1012.2 |
| 20260506195200 | 54 | 55 | 4.0 | 6.0 | 0.00 | 0.00 | 0.00 | 77 | 1012.2 |
| 20260506193939 | 54 | 45 | 5.0 | 8.0 | 0.00 | 0.00 | 0.00 | 76 | 1012.2 |
| 20260506192737 | 54 | 45 | 3.0 | 5.0 | 0.00 | 0.00 | 0.00 | 76 | 1008.8 |
| 20260506191537 | 54 | 45 | 4.0 | 7.0 | 0.00 | 0.00 | 0.00 | 75 | 1008.8 |
| 20260506190335 | 54 | 45 | 6.0 | 9.0 | 0.00 | 0.00 | 0.00 | 75 | 1008.8 |
| 20260506185135 | 54 | 35 | 3.0 | 4.0 | 0.00 | 0.00 | 0.00 | 75 | 1008.8 |
| 20260506183933 | 54 | 45 | 3.0 | 6.0 | 0.00 | 0.00 | 0.00 | 75 | 1008.8 |
| 20260506182733 | 54 | 29 | 5.0 | 7.0 | 0.00 | 0.00 | 0.00 | 74 | 1008.8 |
| 20260506181552 | 55 | 30 | 7.0 | 10.0 | 0.00 | 0.00 | 0.00 | 73 | 1008.8 |
| 20260506180331 | 55 | 45 | 7.0 | 11.0 | 0.00 | 0.00 | 0.00 | 72 | 1008.8 |
| 20260506175129 | 56 | 45 | 9.0 | 15.0 | 0.00 | 0.00 | 0.00 | 71 | 1008.8 |
| 20260506173948 | 56 | 38 | 5.0 | 8.0 | 0.00 | 0.00 | 0.00 | 70 | 1008.8 |
| 20260506172727 | 57 | 45 | 9.0 | 13.0 | 0.00 | 0.00 | 0.00 | 69 | 1008.8 |
| 20260506171525 | 57 | 41 | 9.0 | 13.0 | 0.00 | 0.00 | 0.00 | 68 | 1008.8 |
| 20260506170325 | 57 | 45 | 13.0 | 19.0 | 0.00 | 0.00 | 0.00 | 67 | 1008.8 |
| 20260506165123 | 57 | 45 | 8.0 | 11.0 | 0.00 | 0.00 | 0.00 | 65 | 1008.8 |
| 20260506163922 | 57 | 51 | 5.0 | 11.0 | 0.00 | 0.00 | 0.00 | 65 | 1008.8 |
| 20260506162721 | 58 | 32 | 6.0 | 11.0 | 0.00 | 0.00 | 0.00 | 64 | 1008.8 |
| 20260506161519 | 58 | 54 | 12.0 | 19.0 | 0.00 | 0.00 | 0.00 | 64 | 1008.8 |
| 20260506160318 | 59 | 45 | 9.0 | 13.0 | 0.00 | 0.00 | 0.00 | 64 | 1008.8 |
| 20260506155117 | 59 | 37 | 9.0 | 15.0 | 0.00 | 0.00 | 0.00 | 66 | 1008.8 |
| 20260506153916 | 60 | 46 | 7.0 | 10.0 | 0.00 | 0.00 | 0.00 | 66 | 1008.8 |
| 20260506152815 | 60 | 10 | 4.0 | 9.0 | 0.00 | 0.00 | 0.00 | 66 | 1008.8 |
| 20260506151613 | 60 | 27 | 6.0 | 11.0 | 0.00 | 0.00 | 0.00 | 66 | 1008.8 |
| 20260506150412 | 60 | 45 | 5.0 | 7.0 | 0.00 | 0.00 | 0.00 | 65 | 1008.8 |
| 20260506145211 | 61 | 45 | 9.0 | 11.0 | 0.00 | 0.00 | 0.00 | 64 | 1008.8 |
| 20260506144010 | 62 | 18 | 6.0 | 9.0 | 0.00 | 0.00 | 0.00 | 64 | 1008.8 |
| 20260506142810 | 63 | 19 | 4.0 | 8.0 | 0.00 | 0.00 | 0.00 | 66 | 1006.3 |
| 20260506141606 | 63 | 45 | 4.0 | 8.0 | 0.00 | 0.00 | 0.00 | 67 | 1008.8 |
| 20260506140406 | 62 | 5 | 6.0 | 11.0 | 0.00 | 0.00 | 0.00 | 68 | 1008.8 |
| 20260506135204 | 61 | 26 | 6.0 | 10.0 | 0.00 | 0.00 | 0.00 | 68 | 1008.8 |
| 20260506134003 | 61 | 30 | 6.0 | 14.0 | 0.00 | 0.00 | 0.00 | 66 | 1008.8 |
| 20260506132801 | 62 | 20 | 5.0 | 9.0 | 0.00 | 0.00 | 0.00 | 66 | 1008.8 |
| 20260506131620 | 63 | 34 | 8.0 | 13.0 | 0.00 | 0.00 | 0.00 | 64 | 1008.8 |
| 20260506130359 | 64 | 13 | 5.0 | 7.0 | 0.00 | 0.00 | 0.00 | 64 | 1008.8 |
| 20260506125158 | 63 | 0 | 7.0 | 10.0 | 0.00 | 0.00 | 0.00 | 66 | 1008.8 |
| 20260506123956 | 62 | 27 | 7.0 | 11.0 | 0.00 | 0.00 | 0.00 | 65 | 1008.8 |
| 20260506122815 | 62 | 41 | 9.0 | 15.0 | 0.00 | 0.00 | 0.00 | 66 | 1008.8 |
| 20260506121614 | 61 | 0 | 8.0 | 12.0 | 0.00 | 0.00 | 0.00 | 69 | 1008.8 |
| 20260506120353 | 61 | 17 | 7.0 | 10.0 | 0.00 | 0.00 | 0.00 | 70 | 1008.8 |
| 20260506115151 | 61 | 40 | 9.0 | 13.0 | 0.00 | 0.00 | 0.00 | 70 | 1008.8 |
| 20260506113950 | 60 | 17 | 7.0 | 13.0 | 0.00 | 0.00 | 0.00 | 74 | 1008.8 |
| 20260506112749 | 61 | 19 | 6.0 | 11.0 | 0.00 | 0.00 | 0.00 | 75 | 1008.8 |
| 20260506111547 | 60 | 12 | 5.0 | 7.0 | 0.00 | 0.00 | 0.00 | 75 | 1008.8 |
| 20260506110347 | 61 | 0 | 9.0 | 13.0 | 0.00 | 0.00 | 0.00 | 76 | 1008.8 |
| 20260506105145 | 59 | 45 | 6.0 | 11.0 | 0.00 | 0.00 | 0.00 | 76 | 1008.8 |
| 20260506103944 | 60 | 5 | 10.0 | 14.0 | 0.00 | 0.00 | 0.00 | 77 | 1008.8 |
| 20260506102743 | 59 | 0 | 7.0 | 9.0 | 0.00 | 0.00 | 0.00 | 79 | 1008.8 |
| 20260506101542 | 59 | 45 | 5.0 | 7.0 | 0.00 | 0.00 | 0.00 | 78 | 1008.8 |
| 20260506100341 | 60 | 23 | 6.0 | 9.0 | 0.00 | 0.00 | 0.00 | 80 | 1008.8 |
| 20260506095140 | 60 | 23 | 7.0 | 9.0 | 0.00 | 0.00 | 0.00 | 83 | 1008.8 |
| 20260506093939 | 59 | 344 | 8.0 | 10.0 | 0.00 | 0.00 | 0.00 | 88 | 1008.8 |
| 20260506092737 | 58 | 9 | 9.0 | 15.0 | 0.00 | 0.00 | 0.00 | 91 | 1008.0 |
| 20260506091536 | 57 | 45 | 4.0 | 5.0 | 0.00 | 0.00 | 0.00 | 95 | 1008.8 |
| 20260506090335 | 55 | 11 | 4.0 | 7.0 | 0.00 | 0.00 | 0.00 | 98 | 1008.0 |
| 20260506085134 | 55 | 0 | 4.0 | 9.0 | 0.00 | 0.00 | 0.00 | 99 | 1008.8 |
| 20260506083933 | 54 | 6 | 1.0 | 3.0 | 0.00 | 0.00 | 0.00 | 100 | 1008.0 |
| 20260506082732 | 53 | 348 | 3.0 | 6.0 | 0.00 | 0.00 | 0.00 | 100 | 1008.8 |
| 20260506081530 | 53 | 15 | 3.0 | 7.0 | 0.00 | 0.00 | 0.00 | 100 | 1008.8 |
| 20260506080349 | 52 | 0 | 8.0 | 11.0 | 0.00 | 0.00 | 0.00 | 100 | 1008.8 |
| 20260506072726 | 51 | 341 | 4.0 | 8.0 | 0.00 | 0.00 | 0.00 | 100 | 1008.8 |
| 20260506071525 | 51 | 0 | 5.0 | 7.0 | 0.00 | 0.00 | 0.00 | 100 | 1008.8 |
| 20260506070324 | 50 | 348 | 5.0 | 8.0 | 0.00 | 0.00 | 0.00 | 100 | 1008.8 |
| 20260506061540 | 50 | 4 | 3.0 | 6.0 | 0.00 | 0.00 | 0.00 | 100 | 1005.5 |
| 20260506060318 | 50 | 0 | 5.0 | 8.0 | 0.00 | 0.00 | 0.00 | 99 | 1005.5 |
| 20260506050432 | 50 | 4 | 3.0 | 5.0 | 0.00 | 0.00 | 0.00 | 97 | 1005.5 |
| 20260506044029 | 50 | 6 | 5.0 | 9.0 | 0.00 | 0.00 | 0.00 | 96 | 1005.5 |
| 20260506042828 | 50 | 14 | 4.0 | 10.0 | 0.00 | 0.00 | 0.00 | 96 | 1005.5 |
| 20260506041607 | 50 | 6 | 5.0 | 7.0 | 0.00 | 0.00 | 0.00 | 95 | 1005.5 |
| 20260506040406 | 50 | 0 | 6.0 | 8.0 | 0.00 | 0.00 | 0.00 | 94 | 1005.5 |
| 20260506035205 | 50 | 0 | 5.0 | 6.0 | 0.00 | 0.00 | 0.00 | 94 | 1005.5 |
| 20260506034004 | 50 | 0 | 7.0 | 9.0 | 0.00 | 0.00 | 0.00 | 94 | 1005.5 |
| 20260506032803 | 50 | 0 | 4.0 | 6.0 | 0.00 | 0.00 | 0.00 | 94 | 1005.5 |
| 20260506031621 | 50 | 0 | 4.0 | 5.0 | 0.00 | 0.00 | 0.00 | 93 | 1005.5 |
| 20260506030400 | 50 | 34 | 3.0 | 5.0 | 0.00 | 0.00 | 0.00 | 93 | 1005.5 |
| 20260506025159 | 50 | 0 | 4.0 | 9.0 | 0.00 | 0.00 | 0.00 | 93 | 1005.5 |
| 20260506024018 | 50 | 23 | 2.0 | 4.0 | 0.00 | 0.00 | 0.00 | 93 | 1005.5 |
| 20260506022757 | 50 | 346 | 4.0 | 7.0 | 0.00 | 0.00 | 0.00 | 92 | 1006.3 |
| 20260506021556 | 50 | 0 | 6.0 | 7.0 | 0.00 | 0.00 | 0.00 | 92 | 1008.8 |
| 20260506020355 | 50 | 14 | 2.0 | 5.0 | 0.00 | 0.00 | 0.00 | 91 | 1008.8 |
| 20260506015153 | 50 | 0 | 2.0 | 5.0 | 0.00 | 0.00 | 0.00 | 91 | 1008.8 |
| 20260506013952 | 50 | 0 | 4.0 | 8.0 | 0.00 | 0.00 | 0.00 | 91 | 1008.8 |
| 20260506012752 | 50 | 0 | 4.0 | 9.0 | 0.00 | 0.00 | 0.00 | 91 | 1008.8 |
| 20260506011549 | 50 | 8 | 5.0 | 8.0 | 0.00 | 0.00 | 0.00 | 90 | 1008.8 |
| 20260506010348 | 51 | 23 | 3.0 | 5.0 | 0.00 | 0.00 | 0.00 | 90 | 1008.8 |
| 20260506005148 | 51 | 17 | 2.0 | 3.0 | 0.00 | 0.00 | 0.00 | 90 | 1008.8 |
| 20260506003947 | 51 | 13 | 4.0 | 6.0 | 0.00 | 0.00 | 0.00 | 90 | 1008.8 |
| 20260506002745 | 51 | 23 | 4.0 | 7.0 | 0.00 | 0.00 | 0.00 | 90 | 1008.8 |
| 20260506001544 | 51 | 16 | 4.0 | 5.0 | 0.00 | 0.00 | 0.00 | 90 | 1008.8 |
| 20260506000342 | 51 | 26 | 6.0 | 8.0 | 0.00 | 0.00 | 0.00 | 90 | 1008.8 |
| 20260505235142 | 51 | 12 | 3.0 | 7.0 | 0.00 | 0.00 | 0.00 | 90 | 1008.8 |
| 20260505233940 | 51 | 36 | 4.0 | 7.0 | 0.00 | 0.00 | 0.00 | 90 | 1008.8 |
| 20260505232759 | 51 | 26 | 5.0 | 8.0 | 0.00 | 0.00 | 0.00 | 90 | 1008.8 |
| 20260505231538 | 51 | 34 | 7.0 | 9.0 | 0.00 | 0.00 | 0.00 | 90 | 1008.8 |